F4FAA-12 Weather Reports


Display with metric or nautical units.
time (UTC)temp
F
wind
direction
speed
MPH
gust
MPH
rain 1hr
in
rain 24hr
in
rain mn
in
humidity
%
barometer
mb
20260505081658 55 21 0.0 1.0 0.01 0.01 0.01 81 1014.7
20260505081226 55 21 0.0 0.0 0.01 0.01 0.01 81 1014.6
20260505080644 55 21 0.0 5.0 0.01 0.01 0.01 81 1014.6
20260505080257 54 21 0.0 7.0 0.01 0.01 0.01 81 1014.5
20260505075735 54 0 3.0 7.0 0.00 0.00 0.01 81 1014.5
20260505075229 54 48 1.0 6.0 0.00 0.00 0.01 81 1014.5
20260505075128 54 37 5.0 6.0 0.00 0.00 0.00 81 1014.4
20260505074241 54 35 3.0 5.0 0.00 0.00 0.01 81 1014.3
20260505074045 54 13 2.0 6.0 0.00 0.00 0.00 81 1014.3
20260505073203 54 0 2.0 6.0 0.00 0.00 0.01 81 1014.3
20260505073153 53 0 3.0 7.0 0.00 0.00 0.01 81 1014.3
20260505072155 53 345 5.0 7.0 0.00 0.00 0.01 81 1014.3
20260505072146 53 21 5.0 6.0 0.00 0.00 0.00 81 1014.3
20260505071917 53 0 4.0 6.0 0.00 0.00 0.00 81 1014.2
20260505070743 53 35 1.0 3.0 0.00 0.00 0.00 81 1014.5
20260505070234 54 45 0.0 2.0 0.00 0.00 0.00 81 1014.4
20260505065710 54 39 0.0 1.0 0.00 0.00 0.00 81 1014.3
20260505065254 54 39 0.0 3.0 0.00 0.00 0.00 81 1014.4
20260505064727 54 7 1.0 3.0 0.00 0.00 0.00 81 1014.4
20260505064634 54 66 1.0 3.0 0.00 0.00 0.00 81 1014.4
20260505063625 54 120 0.0 1.0 0.00 0.00 0.00 81 1014.4
20260505063235 54 120 0.0 1.0 0.00 0.00 0.00 81 1014.4
20260505062624 54 120 0.0 2.0 0.00 0.00 0.00 81 1014.3
20260505062256 54 120 0.0 2.0 0.00 0.00 0.00 81 1014.4
20260505062129 54 120 1.0 2.0 0.00 0.00 0.00 81 1014.4
20260505061209 54 120 0.0 2.0 0.00 0.00 0.00 81 1014.3
20260505061109 53 89 0.0 1.0 0.00 0.00 0.00 81 1014.4
20260505060229 53 89 0.0 1.0 0.00 0.00 0.00 81 1014.3
20260505055712 53 89 0.0 1.0 0.00 0.00 0.00 81 1014.2
20260505055241 53 89 0.0 2.0 0.00 0.00 0.00 81 1014.1
20260505054747 53 89 0.0 2.0 0.00 0.00 0.00 81 1014.0
20260505054727 53 131 0.0 1.0 0.00 0.00 0.00 81 1013.9
20260505053743 53 131 0.0 1.0 0.00 0.00 0.00 80 1013.9
20260505053610 53 131 0.0 0.0 0.00 0.00 0.00 80 1013.9
20260505052759 53 131 0.0 1.0 0.00 0.00 0.00 80 1013.8
20260505052300 53 131 0.0 1.0 0.00 0.00 0.00 80 1013.8
20260505051748 53 131 0.0 1.0 0.00 0.00 0.00 80 1013.7
20260505051257 53 128 0.0 1.0 0.00 0.00 0.00 80 1013.8
20260505051130 53 128 0.0 0.0 0.00 0.00 0.00 80 1013.7
20260505050204 53 128 0.0 0.0 0.00 0.00 0.00 80 1013.6
20260505041713 53 276 0.0 1.0 0.00 0.00 0.00 80 1013.6
20260505041702 53 276 0.0 1.0 0.00 0.00 0.00 80 1013.7
20260505040651 53 276 0.0 0.0 0.00 0.00 0.00 80 1013.6
20260505040558 53 276 0.0 1.0 0.00 0.00 0.00 80 1013.5
20260505040336 53 276 0.0 1.0 0.00 0.00 0.00 80 1013.5
20260505035135 53 276 0.0 2.0 0.00 0.00 0.00 80 1013.6
20260505034752 53 276 0.0 2.0 0.00 0.00 0.00 80 1013.5
20260505034227 53 276 1.0 2.0 0.00 0.00 0.00 80 1013.6
20260505033756 53 279 0.0 1.0 0.00 0.00 0.00 80 1013.5
20260505033143 53 279 0.0 1.0 0.00 0.00 0.00 80 1013.5
20260505033115 53 279 0.0 2.0 0.00 0.00 0.00 80 1013.5
20260505032609 53 279 0.0 2.0 0.00 0.00 0.00 80 1013.5
20260505031641 53 321 0.0 1.0 0.00 0.00 0.00 80 1013.6
20260505031156 53 323 0.0 2.0 0.00 0.00 0.00 80 1013.6
20260505030724 53 323 0.0 2.0 0.00 0.00 0.00 80 1013.7
20260505030223 53 11 0.0 2.0 0.00 0.00 0.00 80 1013.7
20260505025740 53 164 0.0 0.0 0.00 0.00 0.00 80 1013.8
20260505025730 53 164 0.0 0.0 0.00 0.00 0.00 80 1013.8
20260505024737 53 164 0.0 1.0 0.00 0.00 0.00 80 1014.0
20260505024725 53 164 0.0 1.0 0.00 0.00 0.00 80 1013.9
20260505023655 53 164 0.0 1.0 0.00 0.00 0.00 80 1014.1
20260505023311 53 164 0.0 0.0 0.00 0.00 0.00 80 1014.0
20260504212757 53 299 0.0 4.0 0.00 0.07 0.07 80 1016.4
20260504212259 53 298 0.0 5.0 0.00 0.07 0.07 80 1016.3
20260504211739 53 357 1.0 5.0 0.00 0.07 0.07 80 1016.2
20260504211249 53 0 3.0 5.0 0.00 0.07 0.07 80 1016.4
20260504210737 53 128 0.0 1.0 0.00 0.07 0.07 80 1016.7
20260504210703 53 128 0.0 1.0 0.00 0.07 0.07 80 1016.9
20260504205803 53 128 0.0 1.0 0.00 0.07 0.07 80 1017.0
20260504205711 53 128 0.0 1.0 0.00 0.07 0.07 80 1017.0
20260504204706 53 128 0.0 2.0 0.00 0.07 0.07 80 1017.0
20260504204119 53 128 0.0 1.0 0.00 0.00 0.00 80 1017.1
20260504203632 53 128 0.0 1.0 0.00 0.07 0.07 80 1017.4
20260504203137 53 128 0.0 1.0 0.01 0.07 0.07 80 1017.3
20260504202638 53 128 0.0 1.0 0.01 0.07 0.07 80 1017.4
20260504202212 53 128 0.0 4.0 0.01 0.07 0.07 80 1017.4
20260504201705 53 128 1.0 4.0 0.01 0.07 0.07 80 1017.3
20260504201656 53 152 2.0 4.0 0.01 0.07 0.07 80 1017.1
20260504200618 53 248 1.0 4.0 0.00 0.00 0.00 80 1016.8
20260504200111 53 286 1.0 3.0 0.00 0.00 0.00 80 1016.7
20260504195625 53 275 1.0 2.0 0.00 0.06 0.07 80 1016.8
20260504195149 53 293 0.0 2.0 0.00 0.06 0.07 80 1016.7
20260504194546 53 326 1.0 2.0 0.00 0.00 0.00 80 1016.7
20260504194141 53 326 1.0 2.0 0.00 0.06 0.07 80 1016.9
20260504193754 53 248 1.0 3.0 0.00 0.06 0.07 80 1016.8
20260504193134 53 226 1.0 4.0 0.00 0.06 0.06 80 1016.9
20260504192736 53 226 3.0 3.0 0.00 0.06 0.06 80 1016.8
20260504192208 53 217 2.0 3.0 0.00 0.06 0.06 80 1016.8
20260504191556 53 214 0.0 4.0 0.00 0.00 0.00 80 1016.9
20260504191227 53 214 2.0 4.0 0.00 0.06 0.06 80 1017.0
20260504190751 53 0 0.0 4.0 0.00 0.06 0.06 80 1016.8
20260504190135 53 243 0.0 5.0 0.00 0.06 0.06 80 1016.8
20260504185728 53 348 0.0 5.0 0.00 0.06 0.06 80 1016.8
20260504185129 53 268 0.0 4.0 0.00 0.06 0.06 80 1016.8
20260504184719 53 288 2.0 4.0 0.00 0.06 0.06 80 1016.9
20260504184630 54 355 3.0 4.0 0.00 0.06 0.06 80 1016.8
20260504183637 54 227 2.0 3.0 0.00 0.06 0.06 80 1016.9
20260504183629 54 303 2.0 4.0 0.00 0.06 0.06 80 1016.7
20260504183404 54 230 0.0 3.0 0.00 0.06 0.06 80 1016.8
20260504182252 54 217 0.0 5.0 0.00 0.06 0.06 80 1017.0
20260504181722 54 223 1.0 4.0 0.00 0.06 0.06 80 1017.0
20260504181244 54 240 1.0 4.0 0.00 0.06 0.06 80 1017.0
20260504180732 54 244 0.0 2.0 0.00 0.06 0.06 80 1017.1
20260504180228 54 244 1.0 2.0 0.00 0.06 0.06 80 1017.1
20260504180204 54 0 0.0 3.0 0.00 0.06 0.06 80 1017.2
20260504175159 54 0 0.0 3.0 0.00 0.06 0.06 80 1017.4
20260504174704 54 38 1.0 1.0 0.00 0.06 0.06 80 1017.3
20260504174159 54 38 0.0 3.0 0.00 0.06 0.06 80 1017.3
20260504173715 54 38 1.0 3.0 0.00 0.06 0.06 80 1017.4
20260504173302 54 113 2.0 3.0 0.00 0.06 0.06 80 1017.5
20260504172625 54 118 2.0 2.0 0.00 0.06 0.06 80 1017.5
20260504172211 54 118 0.0 0.0 0.00 0.06 0.06 80 1017.5
20260504171730 54 118 0.0 0.0 0.00 0.06 0.06 80 1017.5
20260504171619 54 118 0.0 0.0 0.00 0.00 0.00 80 1017.5
20260504170718 54 118 0.0 0.0 0.00 0.06 0.06 80 1017.6
20260504170643 54 118 0.0 2.0 0.00 0.06 0.06 79 1017.8
20260504170153 54 118 0.0 0.0 0.00 0.06 0.06 80 1017.7
20260504160356 54 114 2.0 3.0 0.00 0.06 0.06 80 1018.2
20260504150705 54 128 0.0 3.0 0.01 0.06 0.06 79 1018.2
20260504150200 54 128 0.0 3.0 0.01 0.06 0.06 79 1018.2
20260504150138 54 128 1.0 3.0 0.00 0.05 0.06 79 1018.2
20260504140738 54 110 0.0 6.0 0.00 0.05 0.05 79 1018.8
20260504140638 54 116 3.0 5.0 0.00 0.05 0.05 79 1018.9
20260504130803 54 169 0.0 2.0 0.01 0.05 0.05 79 1019.0
20260504130138 54 169 0.0 2.0 0.01 0.05 0.05 79 1019.1
20260504120241 53 61 0.0 2.0 0.00 0.04 0.04 78 1019.5
20260504110209 53 338 0.0 3.0 0.01 0.04 0.04 77 1019.8
20260504100342 52 128 0.0 0.0 0.00 0.02 0.02 75 1019.8